Weather Service Report


053 
ASUS45 KSLC 040510
RWRUT 

UTAH REGIONAL WEATHER ROUNDUP
NATIONAL WEATHER SERVICE SALT LAKE CITY UT
1100 PM MDT WED JUN 03 2020

UTZ001>011-023>025-040600-

NORTHERN UTAH
  
CITY           SKY/WX    TMP DP  RH WIND       PRES   REMARKS
BRIGHAM CITY   PTCLDY    68  46  45 N7        29.96S                  
HILL AFB       CLEAR     71  40  31 E13       29.98F                  
LOGAN          PTCLDY    66  51  58 CALM      29.98R                  
OGDEN          CLEAR     73  40  30 S12       29.94F                  
SALT LAKE CITY MOCLDY    75  39  27 SE6       29.94S                  
TOOELE VALLEY  CLEAR     70  39  32 S8        29.97S                  
WENDOVER       PTCLDY    74  36  25 CALM      29.95S                  
HEBER CITY       N/A     55  41  58 CALM      30.07S                  
WEST JORDAN    PTCLDY    73  41  31 SW9       29.98S                  

$$

UTZ011>015-024>027-040600-

CENTRAL/NORTHEAST UTAH
  
CITY           SKY/WX    TMP DP  RH WIND       PRES   REMARKS
PROVO AIRPORT  PTCLDY    75  49  39 S10       29.99F                  
MOAB/CANYONLAN CLEAR     74  30  19 SW6       29.98R                  
DELTA          MOCLDY    81  28  15 NE6       30.01S                  
PRICE          CLEAR     69  33  26 CALM      30.09S                  
RICHFIELD      CLEAR     70  37  30 CALM      30.08R                  
ROOSEVELT      CLEAR     68  34  28 CALM      30.06R                  
DUCHESNE       CLEAR     68  32  26 W6        30.10R                  
VERNAL         PTCLDY    70  36  28 NE8       30.06R                  

$$

UTZ013>016-019>022-027-040600-

SOUTHERN UTAH
  
CITY           SKY/WX    TMP DP  RH WIND       PRES   REMARKS
BRYCE CANYON   CLEAR     53  34  48 W9        30.28R                  
CEDAR CITY     CLEAR     71  32  23 SE9       30.10S                  
MILFORD        PTCLDY    69  35  28 S7        30.04R                  
PANGUITCH      CLEAR     57  36  44 SE10      30.23R                  
ST GEORGE      PTCLDY    83  33  16 SE5       29.89R                  
HANKSVILLE     CLEAR     66  28  24 NE3       30.01S                  
KANAB          CLEAR     70  36  28 N5        30.09R                  
BLANDING         N/A     62  34  35 NW9       30.18S                  

$$

REGIONAL REPORTS     COLORADO/ARIZONA
  
CITY           SKY/WX    TMP DP  RH WIND       PRES   REMARKS
CRAIG, CO      PTCLDY    66  38  35 N8G17     30.18R                  
GRAND JUNCTION MOCLDY    75  32  20 E5        30.01S                  
RIFLE, CO      PTCLDY    68  35  29 E8        30.09R                  
MONTROSE, CO   MOCLDY    76  34  21 SE10      30.13S                  
CORTEZ, CO     PTCLDY    64  36  35 N5        30.13R                  
COLORADO CITY    N/A     63  37  39 E7        30.09R                  
PAGE, AZ       PTCLDY    85  30  13 S6        29.99R                  
GRAND CANYON   CLEAR     54  32  43 CALM      30.21R                  
KINGMAN, AZ    CLEAR     82  30  15 S10       29.95R                  
FLAGSTAFF, AZ  CLEAR     59  34  39 CALM      30.26R                  

$$

REGIONAL REPORTS    NEVADA/IDAHO/WYOMING
  
CITY           SKY/WX    TMP DP  RH WIND       PRES   REMARKS
LAS VEGAS, NV  PTCLDY    95  34  11 SW6       29.81R HX  90           
ELY, NY        PTCLDY    56  43  61 S6        30.17R                  
ELKO, NV       MOCLDY    64  32  30 SW5       30.04R                  
POCATELLO, ID  MOCLDY    68  44  42 SW7       29.98S                  
BURLEY, ID     MOCLDY    67  49  52 SW5       29.95S                  
EVANSTON, WY   CLEAR     58  37  45 S7        30.17F                  
ROCK SPRINGS,  PTCLDY    61  35  37 SW3       30.16S                  
KEMMERER, WY   CLEAR     54  36  50 S3        30.18S                  

$$
  

Return to Home page


Western Regional Climate Center, wrcc@dri.edu